Weather History for Casper, WY

Change the Weather History Date:

Thursday, May 23, 2013

  Actual Average Record
Temperature  
Mean Temperature 61 °F 54 °F  
Max Temperature 78 °F 70 °F 88 °F (1984)
Min Temperature 44 °F 39 °F 28 °F (1986)
Degree Days  
Heating Degree Days 4 11  
Month to date heating degree days 270 326  
Since 1 July heating degree days 7133 7368  
Cooling Degree Days 0 0  
Month to date cooling degree days 10 0  
Year to date cooling degree days 10 0  
Growing Degree Days 11 (Base 50)    
Moisture  
Dew Point 42 °F    
Average Humidity 59    
Maximum Humidity 89    
Minimum Humidity 29    
Precipitation  
Precipitation 0.00 in 0.07 in 0.84 in (1965)
Month to date precipitation 1.79 1.51  
Year to date precipitation 5.95 4.70  
Snow  
Snow 0.00 in 0.00 in - ()
Month to date snowfall 3.5 2.7  
Since 1 July snowfall 85.7 74.6  
Snow Depth 0.00 in    
Sea Level Pressure  
Sea Level Pressure 29.75 in    
Wind  
Wind Speed 13 mph (ESE)    
Max Wind Speed 31 mph    
Max Gust Speed 39 mph    
Visibility 10 miles    
Events      
T = Trace of Precipitation, MM = Missing Value Source: NWS Daily Summary

Daily Weather History Graph

Daily Weather History Graph

Search for Another Location

Airport:

Trip Planner

Search our weather history database for the weather conditions in past years. The results will help you decide how hot, cold, wet, or windy it might be!

Date:

Astronomy

May. 23, 2013 Rise Set
Actual Time 5:35 AM MDT 8:30 PM MDT
Civil Twilight 5:01 AM MDT 9:04 PM MDT
Nautical Twilight 4:19 AM MDT 9:46 PM MDT
Astronomical Twilight 3:29 AM MDT 10:36 PM MDT
Moon 7:04 PM MDT (5/23) 4:24 AM MDT (5/23)
Length of Visible Light 16h 02m
Length of Day
14h 55m
Waxing Gibbous, 97% of the Moon is Illuminated
May 23
Waxing Gibbous
May 24
Full
May 31
Last Quarter
Jun 8
New
Jun 16
First Quarter

Hourly Weather History & Observations

Time (MDT) Temp. Windchill Dew Point Humidity Pressure Visibility Wind Dir Wind Speed Gust Speed Precip Events Conditions
12:53 AM 46.0 °F 37.8 °F 41.0 °F 83% 29.85 in 10.0 mi East 23.0 mph 34.5 mph N/A   Scattered Clouds
1:53 AM 45.0 °F 36.2 °F 41.0 °F 86% 29.83 in 10.0 mi East 24.2 mph 35.7 mph N/A   Partly Cloudy
2:53 AM 44.1 °F 35.2 °F 41.0 °F 89% 29.83 in 10.0 mi East 23.0 mph 33.4 mph N/A   Clear
3:53 AM 44.1 °F 35.9 °F 41.0 °F 89% 29.83 in 10.0 mi East 19.6 mph 29.9 mph N/A   Clear
4:33 AM 44.6 °F 36.4 °F 41.0 °F 87% 29.95 in 10.0 mi East 20.7 mph 27.6 mph N/A   Partly Cloudy
4:53 AM 44.1 °F 36.2 °F 41.0 °F 89% 29.83 in 10.0 mi East 18.4 mph 28.8 mph N/A   Partly Cloudy
5:53 AM 44.1 °F 37.4 °F 39.9 °F 85% 29.83 in 10.0 mi ESE 13.8 mph - N/A   Partly Cloudy
6:53 AM 45.0 °F 39.7 °F 41.0 °F 86% 29.85 in 10.0 mi East 10.4 mph - N/A   Clear
7:00 AM 46.4 °F 41.1 °F 41.0 °F 81% 29.95 in 10.0 mi East 11.5 mph - N/A   Scattered Clouds
7:53 AM 48.0 °F - 42.1 °F 80% 29.85 in 10.0 mi ESE 11.5 mph - N/A   Scattered Clouds
8:53 AM 52.0 °F - 42.1 °F 69% 29.86 in 10.0 mi ESE 9.2 mph - N/A   Clear
9:53 AM 57.0 °F - 42.1 °F 57% 29.84 in 10.0 mi East 6.9 mph - N/A   Clear
10:53 AM 61.0 °F - 42.1 °F 50% 29.82 in 10.0 mi East 9.2 mph - N/A   Clear
11:53 AM 64.9 °F - 44.1 °F 47% 29.78 in 10.0 mi East 10.4 mph - N/A   Clear
12:53 PM 68.0 °F - 44.1 °F 42% 29.74 in 10.0 mi ENE 18.4 mph - N/A   Clear
1:53 PM 71.1 °F - 45.0 °F 39% 29.69 in 10.0 mi East 19.6 mph 32.2 mph N/A   Clear
2:53 PM 72.0 °F - 46.0 °F 40% 29.65 in 10.0 mi East 27.6 mph 36.8 mph N/A   Clear
3:53 PM 72.0 °F - 46.0 °F 40% 29.64 in 10.0 mi East 27.6 mph 39.1 mph N/A   Clear
4:53 PM 75.9 °F - 45.0 °F 33% 29.61 in 10.0 mi East 20.7 mph 31.1 mph N/A   Clear
5:16 PM 78.8 °F - 39.2 °F 24% 29.77 in 10.0 mi ESE 11.5 mph 20.7 mph N/A   Clear
5:53 PM 75.0 °F - 41.0 °F 29% 29.60 in 10.0 mi SSE 20.7 mph 28.8 mph N/A   Clear
6:53 PM 71.1 °F - 42.1 °F 35% 29.61 in 10.0 mi SSE 15.0 mph 21.9 mph N/A   Clear
7:53 PM 68.0 °F - 41.0 °F 37% 29.62 in 10.0 mi Calm Calm - N/A   Clear
8:53 PM 64.0 °F - 42.1 °F 45% 29.63 in 10.0 mi Variable 4.6 mph 18.4 mph N/A   Clear
9:53 PM 62.1 °F - 39.9 °F 44% 29.63 in 10.0 mi SSE 5.8 mph - N/A   Clear
10:53 PM 60.1 °F - 39.9 °F 47% 29.64 in 10.0 mi Calm Calm - N/A   Clear
11:53 PM 59.0 °F - 39.0 °F 48% 29.63 in 10.0 mi South 5.8 mph - N/A   Clear